Zurück zum Katalog

CBERS 1

AktivWissenschaftSSO
NORAD 25940·PAYLOAD·🇧🇷 Brazil🇨🇳 China

Gestartet Oct 14, 1999 von Taiyuan Satellite Launch Center

Loading…

Nächste Überflüge (nächste 24 Stunden)

TLE

AktuellSource: Space-Track

Epoche: Sep 14, 2026, 12:13 UTC

1 25940U 99057A   26257.50959593  .00000085  00000-0  44430-4 0  9999
2 25940  98.8506 269.5970 0006030  94.1908 265.9967 14.37032779410345

Verfolge CBERS 1 in Echtzeit mit AllMySat

Download on the App Store